NOAA NWS Hourly Roundups by Site

Regional Weather Roundup for Des Moines, IA

To Select Another Site Choose from List

Select Site:  

000
ASUS43 KDMX 192001
RWRIA

WEATHER ROUNDUP FOR IOWA
NATIONAL WEATHER SERVICE DES MOINES IA
300 PM CDT FRI OCT 19 2018

NOTE: "FAIR" INDICATES FEW OR NO CLOUDS BELOW 12,000 FEET WITH NO
SIGNIFICANT WEATHER AND/OR OBSTRUCTIONS TO VISIBILITY.

* - THESE STATIONS ARE NOT NWS STATIONS...THUS NOT UNDER NWS
QUALITY CONTROL.  THEY ALSO DO NOT REPORT WEATHER SUCH
AS PRECIPITATION OR FOG.

IAZ001>003-012>014-020>022-031>034-043>046-192100-
   NORTHWEST IOWA

CITY           SKY/WX    TMP DP  RH WIND       PRES   REMARKS
CARROLL *      SUNNY     70  52  52 W20G26    29.90S
CHEROKEE *     SUNNY     67  43  40 NW17G26   29.93R
DENISON *      SUNNY     70  50  49 W16       29.94S
LE MARS *      SUNNY     68  39  34 NW17G25   29.96R
ORANGE CITY *  SUNNY     66  37  34 N18G26    29.96R
SHELDON *      SUNNY     66  34  30 N22G30    29.94R
SIOUX CITY     SUNNY     68  42  38 NW29G37   29.95R
SPENCER        SUNNY     67  36  31 N28G36    29.93R
STORM LAKE *   SUNNY     68  45  42 NW16G30   29.91S
$$

IAZ055>058-069>071-079>083-090>094-192100-
   SOUTHWEST IOWA

CITY           SKY/WX    TMP DP  RH WIND       PRES   REMARKS
ATLANTIC *     SUNNY     70  50  49 W15G22    29.93S
AUDUBON *      SUNNY     70  52  52 CALM      29.93S
CLARINDA *     SUNNY     70  52  52 W12G20    29.97F
COUNCIL BLFS * SUNNY     70  50  49 NW13G21   29.95F
CRESTON *      SUNNY     68  52  56 W18G24    29.94F
HARLAN  *      SUNNY     70  50  49 NW20G25   29.94S
LAMONI         CLOUDY    63  52  67 W15G25    29.96R
RED OAK *      SUNNY     72  50  46 W15       29.95S
SHENANDOAH *   SUNNY     72  50  46 W17       29.97S
$$

IAZ047>049-059>061-072>074-084-192100-
   CENTRAL IOWA

CITY           SKY/WX    TMP DP  RH WIND       PRES   REMARKS
AMES           SUNNY     68  51  54 W15G28    29.87F
ANKENY *       MOSUNNY   66  52  59 W17G23    29.89F
BOONE *        SUNNY     68  52  56 W17G26    29.87R
CHARITON *     CLOUDY    61  52  72 SW14G22   29.92F
DES MOINES     MOSUNNY   68  52  56 W20G28    29.88F
GRINNELL*      CLOUDY    61  51  71 SW17G23   29.89F
KNOXVILLE *    CLOUDY    63  54  72 W18G29    29.89F
MARSHALLTOWN   PTSUNNY   65  53  65 W20G30    29.85F
NEWTON *       PTSUNNY   64  52  63 SW20      29.87F
PELLA *        CLOUDY    62  51  66 W17       29.91F
PERRY *        FAIR      70  48  44 W18G25    29.89S
$$

IAZ004>006-015-016-023>025-035-036-192100-
   NORTH CENTRAL IOWA

CITY           SKY/WX    TMP DP  RH WIND       PRES   REMARKS
ALGONA *       SUNNY     68  41  37 NW22G36   29.87R
CLARION *      PTSUNNY   66  52  59 NW22G29   29.86F
ESTHERVILLE    SUNNY     63  36  36 N24G37    29.91R
FORT DODGE *   MOSUNNY   67  51  56 W16G26    29.88F
MASON CITY     PTSUNNY   66  51  58 W23G33    29.83F
FOREST CITY *  FAIR      66  43  42 NW15G31   29.84S
IOWA FALLS *   FAIR      65  52  62 W22       29.87S
$$

IAZ007>011-017>019-026>030-037>042-050>054-066-192100-
   NORTHEAST IOWA

CITY           SKY/WX    TMP DP  RH WIND       PRES   REMARKS
CEDAR RAPIDS   CLOUDY    59  50  72 SW13G22   29.85F
CHARLES CITY * PTSUNNY   61  52  72 W17G29    29.82S
CLINTON *      CLOUDY    56  49  77 SW17      29.87F
DECORAH *      CLOUDY    57  54  88 W10G21    29.78S
DUBUQUE        CLOUDY    54  47  77 SW15      29.83F
MONTICELLO *   CLOUDY    57  50  77 SW10G16   29.84F
OELWEIN *      CLOUDY    59  54  82 W18       29.82F
WATERLOO       PTSUNNY   62  51  67 W16G28    29.82F
$$

IAZ064-065-067-068-078-192100-
   EAST CENTRAL IOWA

CITY           SKY/WX    TMP DP  RH WIND       PRES   REMARKS
DAVENPORT      CLOUDY    57  48  72 SW15G30   29.90F
IOWA CITY      CLOUDY    58  50  75 SW12G22   29.90F
MT. PLEASANT * CLOUDY    59  50  72 SW15G23   29.93R
MUSCATINE *    CLOUDY    59  50  72 SW16G25   29.91R
QUAD CITIES    CLOUDY    57  48  72 SW15G21   29.88F
$$

IAZ062-063-075>077-085>089-095>099-192100-
   SOUTHEAST IOWA

CITY           SKY/WX    TMP DP  RH WIND       PRES   REMARKS
BURLINGTON     CLOUDY    58  47  66 SW17G25   29.92F
FAIRFIELD *    CLOUDY    59  50  72 W17       29.92R
FORT MADISON * CLOUDY    57  50  77 SW13      29.93F
KEOKUK *       CLOUDY    59  50  72 SW17G26   29.93F
OSKALOOSA *    CLOUDY    59  51  74 W16       29.91F
OTTUMWA        CLOUDY    59  51  75 SW15G25   29.92R
WASHINGTON *   CLOUDY    57  54  88 W15G22    29.92S
$$

ABBREVIATIONS USED IN REMARKS
   TC - TEMPERATURES IN CELSIUS
  WCI - WIND CHILL INDEX
   HX - HEAT INDEX
  VSB - VISIBILITY
$$



 

View Past Reports for Des Moines, IA.

Products Courtesy of NOAA-NWS
NWS Information Parsing Script by Ken True at Saratoga Weather - Script by SE Lincoln Weather.